CW4658 Weather Reports


time (UTC)temp
F
wind
direction
speed
knots
gust
knots
rain 1hr
in
rain 24hr
in
rain mn
in
humidity
%
barometer
mb
20260506050405 52 32 3.5 9.6 0.00 0.00 0.00 82 1009.9
20260506044804 52 40 2.6 9.6 0.00 0.00 0.00 84 1009.8
20260506044405 52 30 3.5 9.6 0.00 0.00 0.00 84 1009.7
20260506044005 52 25 3.5 8.7 0.00 0.00 0.00 84 1009.7
20260506043605 52 20 3.5 9.6 0.00 0.00 0.00 84 1009.6
20260506043204 52 21 3.5 9.6 0.00 0.00 0.00 83 1009.7
20260506042805 52 19 3.5 9.6 0.00 0.00 0.00 83 1009.6
20260506042406 52 23 3.5 9.6 0.00 0.00 0.00 84 1009.7
20260506042006 52 25 2.6 7.0 0.00 0.00 0.00 84 1009.7
20260506041605 52 27 2.6 7.0 0.00 0.00 0.00 83 1009.6
20260506041204 53 26 2.6 9.6 0.00 0.00 0.00 82 1009.6
20260506040805 53 24 3.5 9.6 0.00 0.00 0.00 81 1009.6
20260506040404 53 20 2.6 7.8 0.00 0.00 0.00 81 1009.5
20260506040006 53 17 2.6 8.7 0.00 0.00 0.00 81 1009.5
20260506035606 53 26 3.5 8.7 0.00 0.00 0.00 80 1009.5
20260506035206 53 37 2.6 7.8 0.00 0.00 0.00 80 1009.7
20260506034006 53 36 2.6 8.7 0.00 0.00 0.00 80 1009.5
20260506033605 53 34 2.6 7.0 0.00 0.00 0.00 80 1009.6
20260506033205 53 36 2.6 7.8 0.00 0.00 0.00 80 1009.4
20260506032806 53 28 2.6 8.7 0.00 0.00 0.00 80 1009.3
20260506032405 53 28 2.6 8.7 0.00 0.00 0.00 80 1009.3
20260506032006 53 30 2.6 7.8 0.00 0.00 0.00 80 1009.3
20260506031205 53 11 2.6 12.2 0.00 0.00 0.00 79 1009.3
20260506030806 53 21 2.6 12.2 0.00 0.00 0.00 79 1009.2
20260506030405 53 25 2.6 12.2 0.00 0.00 0.00 79 1009.0
20260506030007 53 24 2.6 9.6 0.00 0.00 0.00 79 1009.0
20260506025605 53 28 1.7 9.6 0.00 0.00 0.00 79 1008.8
20260506025205 53 21 1.7 5.2 0.00 0.00 0.00 80 1008.8
20260506024405 53 18 1.7 6.1 0.00 0.00 0.00 80 1008.6
20260506024007 53 34 1.7 6.1 0.00 0.00 0.00 80 1008.2
20260506023605 53 35 1.7 8.7 0.00 0.00 0.00 80 1008.0
20260506023205 53 32 1.7 8.7 0.00 0.00 0.00 80 1007.9
20260506022805 53 32 2.6 8.7 0.00 0.00 0.00 79 1007.9
20260506022406 53 31 2.6 7.0 0.00 0.00 0.00 79 1007.9
20260506021605 53 24 3.5 10.4 0.00 0.00 0.00 80 1007.6
20260506021206 53 27 3.5 10.4 0.00 0.00 0.00 79 1007.4
20260506020805 53 25 2.6 7.8 0.00 0.00 0.00 79 1007.3
20260506020007 53 21 2.6 7.8 0.00 0.00 0.00 80 1007.2
20260506015606 53 28 2.6 7.8 0.00 0.00 0.00 80 1007.3
20260506015205 53 25 3.5 9.6 0.00 0.00 0.00 79 1007.1
20260506014805 53 29 2.6 10.4 0.00 0.00 0.00 79 1007.0
20260506014406 53 25 3.5 10.4 0.00 0.00 0.00 79 1007.0
20260506014006 53 15 2.6 10.4 0.00 0.00 0.00 79 1006.9
20260506013605 54 20 1.7 7.0 0.00 0.00 0.00 79 1006.9
20260506013206 54 28 2.6 8.7 0.00 0.00 0.00 79 1006.8
20260506012406 54 38 3.5 8.7 0.00 0.00 0.00 79 1006.8
20260506012006 54 30 3.5 8.7 0.00 0.00 0.00 80 1006.5
20260506011205 54 14 2.6 7.0 0.00 0.00 0.00 80 1006.7
20260506010805 54 10 2.6 7.0 0.00 0.00 0.00 80 1006.6
20260506010006 54 20 3.5 8.7 0.00 0.00 0.00 79 1006.2
20260506005605 54 27 3.5 8.7 0.00 0.00 0.00 79 1006.4
20260506005206 54 30 2.6 9.6 0.00 0.00 0.00 80 1006.5
20260506004805 54 27 2.6 9.6 0.00 0.00 0.00 79 1006.7
20260506004405 54 32 2.6 9.6 0.00 0.00 0.00 79 1006.7
20260506004006 54 33 2.6 6.1 0.00 0.00 0.00 80 1006.5
20260506003605 54 25 2.6 7.0 0.00 0.00 0.00 80 1006.2
20260506003205 54 21 2.6 7.8 0.00 0.00 0.00 80 1006.2
20260506002805 54 23 2.6 7.8 0.00 0.00 0.00 80 1005.9
20260506002406 54 25 3.5 7.8 0.00 0.00 0.00 80 1005.5
20260506002007 54 21 3.5 8.7 0.00 0.00 0.00 80 1005.9
20260506001606 54 21 3.5 8.7 0.00 0.00 0.00 80 1005.7
20260506000806 55 12 2.6 9.6 0.00 0.00 0.00 80 1006.3
20260506000006 55 24 3.5 9.6 0.00 0.00 0.00 80 1006.4
20260505235605 55 25 2.6 8.7 0.00 0.00 0.00 81 1006.2
20260505235205 55 20 2.6 12.2 0.00 0.00 0.00 81 1006.2
20260505234405 55 18 3.5 12.2 0.00 0.00 0.00 81 1006.2
20260505234006 55 26 3.5 11.3 0.00 0.00 0.00 81 1006.0
20260505233606 55 26 3.5 11.3 0.00 0.00 0.00 81 1005.7
20260505233205 55 22 3.5 7.8 0.00 0.00 0.00 81 1005.8
20260505232806 56 25 3.5 7.8 0.00 0.00 0.00 81 1005.8
20260505232405 56 25 3.5 9.6 0.00 0.00 0.00 81 1005.5
20260505232007 56 25 2.6 9.6 0.00 0.00 0.00 81 1005.6
20260505231206 56 22 2.6 11.3 0.00 0.00 0.00 81 1005.1
20260505230805 56 21 3.5 11.3 0.00 0.00 0.00 81 1005.3
20260505230405 56 22 3.5 11.3 0.00 0.00 0.00 81 1005.1
20260505225606 56 30 4.3 13.0 0.00 0.00 0.00 81 1004.9
20260505225205 56 26 4.3 13.0 0.00 0.00 0.00 81 1004.8
20260505224806 56 17 3.5 10.4 0.00 0.00 0.00 80 1005.0
20260505224006 57 22 4.3 12.2 0.00 0.00 0.00 81 1004.5
20260505223607 57 21 5.2 12.2 0.00 0.00 0.00 80 1004.4
20260505223206 57 25 4.3 11.3 0.00 0.00 0.00 80 1004.6
20260505222806 57 28 3.5 11.3 0.00 0.00 0.00 80 1004.5
20260505222405 58 32 3.5 8.7 0.00 0.00 0.00 80 1004.6
20260505221606 58 27 3.5 8.7 0.00 0.00 0.00 80 1004.7
20260505221206 58 25 4.3 8.7 0.00 0.00 0.00 80 1004.7
20260505220806 58 32 3.5 9.6 0.00 0.00 0.00 80 1004.3
20260505220406 58 25 3.5 9.6 0.00 0.00 0.00 79 1004.0
20260505220007 59 22 2.6 10.4 0.00 0.00 0.00 80 1003.8
20260505215606 59 26 2.6 10.4 0.00 0.00 0.00 80 1004.0
20260505215206 59 25 2.6 8.7 0.00 0.00 0.00 80 1004.2
20260505214806 59 20 2.6 8.7 0.00 0.00 0.00 80 1004.3
20260505214406 59 14 2.6 8.7 0.00 0.00 0.00 80 1004.6
20260505214007 59 23 1.7 7.0 0.00 0.00 0.00 81 1004.5
20260505213606 59 17 2.6 10.4 0.00 0.00 0.00 81 1004.3
20260505213206 59 27 2.6 10.4 0.00 0.00 0.00 80 1004.5
20260505212805 60 19 2.6 10.4 0.00 0.00 0.00 80 1004.3
20260505212406 60 24 3.5 10.4 0.00 0.00 0.00 80 1004.4
20260505211607 60 27 3.5 10.4 0.00 0.00 0.00 80 1003.6
20260505211205 60 26 3.5 10.4 0.00 0.00 0.00 80 1003.6
20260505210806 60 26 3.5 10.4 0.00 0.00 0.00 80 1003.4
20260505210406 60 21 3.5 10.4 0.00 0.00 0.00 80 1003.4
20260505210007 60 24 3.5 10.4 0.00 0.00 0.00 80 1003.3
20260505205606 60 28 2.6 8.7 0.00 0.00 0.00 81 1003.7
20260505205206 60 33 2.6 8.7 0.00 0.00 0.00 81 1003.8
20260505204806 60 30 3.5 8.7 0.00 0.00 0.00 80 1004.1
20260505204406 60 31 3.5 11.3 0.00 0.00 0.00 80 1003.9
20260505204007 60 33 3.5 11.3 0.00 0.00 0.00 80 1003.7
20260505203606 61 25 3.5 7.8 0.00 0.00 0.00 80 1003.9
20260505203206 61 19 2.6 7.8 0.00 0.00 0.00 80 1004.0
20260505202806 61 18 3.5 10.4 0.00 0.00 0.00 80 1004.1
20260505202406 61 26 4.3 10.4 0.00 0.00 0.00 80 1003.9
20260505202006 61 29 3.5 10.4 0.00 0.00 0.00 80 1003.7
20260505201606 62 27 3.5 9.6 0.00 0.00 0.00 80 1003.6
20260505201206 62 16 2.6 8.7 0.00 0.00 0.00 80 1003.5
20260505200406 62 352 2.6 6.1 0.00 0.00 0.00 80 1003.4
20260505195606 62 25 2.6 11.3 0.00 0.00 0.00 79 1003.2
20260505195206 63 13 2.6 6.1 0.00 0.00 0.00 79 1003.1
20260505194806 63 15 2.6 6.1 0.00 0.00 0.00 79 1003.1
20260505194405 63 30 2.6 8.7 0.00 0.00 0.00 79 1003.1
20260505194007 63 31 3.5 8.7 0.00 0.00 0.00 79 1003.2
20260505193206 64 33 3.5 9.6 0.00 0.00 0.00 79 1003.2
20260505192406 64 24 2.6 8.7 0.00 0.00 0.00 79 1003.1
20260505192007 64 16 2.6 11.3 0.00 0.00 0.00 80 1003.1
20260505191606 63 22 2.6 11.3 0.00 0.00 0.00 81 1003.1
20260505191206 63 19 3.5 11.3 0.00 0.00 0.00 80 1003.0
20260505190807 63 25 3.5 10.4 0.00 0.00 0.00 81 1003.0
20260505190406 63 20 3.5 10.4 0.00 0.00 0.00 81 1003.1
20260505185607 64 300 1.7 7.0 0.00 0.00 0.00 81 1003.3
20260505184805 64 344 1.7 6.1 0.00 0.00 0.00 81 1003.2
20260505184406 65 354 2.6 6.1 0.00 0.00 0.00 80 1003.0
20260505184008 65 331 1.7 6.1 0.00 0.00 0.00 80 1002.8
20260505182806 66 352 2.6 5.2 0.00 0.00 0.00 81 1002.7
20260505182406 66 14 1.7 6.1 0.00 0.00 0.00 81 1002.4
20260505181607 66 12 1.7 8.7 0.00 0.00 0.00 80 1001.7
20260505181206 66 12 1.7 8.7 0.00 0.00 0.00 80 1001.9
20260505180806 67 355 1.7 5.2 0.00 0.00 0.00 79 1002.0
20260505180406 67 7 1.7 8.7 0.00 0.00 0.00 78 1002.0
20260505180008 68 26 2.6 8.7 0.00 0.00 0.00 77 1001.9
20260505175606 69 2 2.6 8.7 0.00 0.00 0.00 75 1002.0
20260505174806 72 275 2.6 7.0 0.00 0.00 0.00 72 1001.9
20260505174406 75 245 1.7 5.2 0.00 0.00 0.00 70 1001.7
20260505174008 76 196 1.7 4.3 0.00 0.00 0.00 77 1001.5
20260505173607 76 191 1.7 7.8 0.00 0.00 0.00 79 1001.4
20260505173206 75 196 2.6 7.8 0.00 0.00 0.00 77 1001.3
20260505172806 75 199 2.6 7.0 0.00 0.00 0.00 77 1001.2
20260505172406 75 199 2.6 7.0 0.00 0.00 0.00 77 1001.2
20260505172007 75 196 2.6 6.1 0.00 0.00 0.00 78 1001.2
20260505171607 75 193 1.7 6.1 0.00 0.00 0.00 77 1001.2
20260505171206 74 193 1.7 6.1 0.00 0.00 0.00 78 1001.1
20260505170806 74 189 0.9 2.6 0.00 0.00 0.00 77 1001.1
20260505170406 74 179 1.7 7.8 0.00 0.00 0.00 78 1001.3
20260505170008 74 177 1.7 7.8 0.00 0.00 0.00 78 1001.4
20260505165606 74 184 1.7 4.3 0.00 0.00 0.00 77 1001.5
20260505165207 74 186 0.9 4.3 0.00 0.00 0.00 78 1001.5
20260505164007 74 186 0.9 5.2 0.00 0.00 0.00 78 1001.4
20260505163607 73 192 0.9 4.3 0.00 0.00 0.00 79 1001.4
20260505163207 73 194 0.9 4.3 0.00 0.00 0.00 79 1001.3
20260505162806 73 196 1.7 6.1 0.00 0.00 0.00 79 1001.4
20260505162407 72 196 0.9 6.1 0.00 0.00 0.00 79 1001.5
20260505162007 72 194 0.9 6.1 0.00 0.00 0.00 79 1001.6
20260505161206 72 187 0.9 4.3 0.00 0.00 0.00 78 1001.6
20260505160806 72 184 0.9 4.3 0.00 0.00 0.00 78 1001.5
20260505160406 72 183 0.9 4.3 0.00 0.00 0.00 78 1001.3
20260505153206 73 172 1.7 5.2 0.00 0.00 0.00 77 1001.2
20260505152807 73 184 1.7 7.0 0.00 0.00 0.00 77 1001.0
20260505152008 73 192 2.6 7.0 0.00 0.00 0.00 77 1001.0
20260505151606 72 191 1.7 6.1 0.00 0.00 0.00 77 1000.9
20260505151206 72 192 2.6 6.1 0.00 0.00 0.00 77 1000.8
20260505150806 72 195 2.6 6.1 0.00 0.00 0.00 77 1000.9
20260505140404 70 181 0.0 1.7 0.00 0.00 0.00 79 1001.3
20260505124405 68 351 0.9 5.2 0.00 0.00 0.00 79 1001.9
20260505124006 68 357 0.9 3.5 0.00 0.00 0.00 79 1001.8
20260505123605 68 355 0.9 6.1 0.00 0.00 0.00 79 1001.7
20260505123205 68 313 0.9 6.1 0.00 0.00 0.00 79 1001.7
20260505122405 68 339 0.9 5.2 0.00 0.00 0.00 79 1001.6
20260505122005 68 341 0.9 5.2 0.00 0.00 0.00 79 1001.6
20260505121605 68 325 0.9 5.2 0.00 0.00 0.00 79 1001.5
20260505121204 68 308 0.0 3.5 0.00 0.00 0.00 79 1001.3
20260505120804 68 284 0.9 3.5 0.00 0.00 0.00 79 1001.3
20260505120405 68 249 0.9 3.5 0.00 0.00 0.00 79 1001.4
20260505120006 68 247 0.9 3.5 0.00 0.00 0.00 78 1001.3
20260505115604 68 289 0.9 4.3 0.00 0.00 0.00 79 1001.0
20260505115204 68 335 0.9 4.3 0.00 0.00 0.00 78 1001.0
20260505114405 68 338 0.9 4.3 0.00 0.00 0.00 77 1000.8
20260505114006 68 350 1.7 4.3 0.00 0.00 0.00 77 1000.7
20260505113605 68 349 0.9 4.3 0.00 0.00 0.00 78 1000.7
20260505112804 68 333 0.9 6.1 0.00 0.00 0.00 78 1000.6
20260505112405 68 300 0.9 2.6 0.00 0.00 0.00 78 1000.6
20260505112006 68 349 0.9 4.3 0.00 0.00 0.00 78 1000.6
20260505111605 68 353 0.9 4.3 0.00 0.00 0.00 77 1000.6
20260505110804 68 300 0.9 4.3 0.00 0.00 0.00 77 1000.6
20260505110405 68 300 0.9 4.3 0.00 0.00 0.00 77 1000.6
20260505102005 69 2 0.9 3.5 0.00 0.00 0.00 76 1000.1
20260505101604 69 7 0.9 3.5 0.00 0.00 0.00 76 1000.2
20260505101204 69 16 0.9 3.5 0.00 0.00 0.00 76 1000.2
20260505100805 69 16 0.9 2.6 0.00 0.00 0.00 76 1000.2
20260505100404 69 16 0.0 2.6 0.00 0.00 0.00 76 1000.0
20260505100005 69 343 0.0 1.7 0.00 0.00 0.00 77 1000.0
20260505095604 69 336 0.0 1.7 0.00 0.00 0.00 76 1000.0
20260505095205 69 334 0.9 3.5 0.00 0.00 0.00 76 1000.0
20260505094804 69 334 0.9 3.5 0.00 0.00 0.00 76 1000.0
20260505094405 69 338 0.9 4.3 0.00 0.00 0.00 76 1000.0
20260505094005 69 343 0.0 4.3 0.00 0.00 0.00 75 1000.0
20260505093605 69 281 0.0 3.5 0.00 0.00 0.00 75 1000.1
20260505092804 70 275 0.9 3.5 0.00 0.00 0.00 75 1000.0
20260505092405 70 289 0.9 3.5 0.00 0.00 0.00 75 1000.2
20260505092005 69 9 0.0 2.6 0.00 0.00 0.00 75 1000.2
20260505091604 69 8 0.9 3.5 0.00 0.00 0.00 76 1000.3
20260505091205 69 7 0.9 3.5 0.00 0.00 0.00 77 1000.4
20260505090805 69 358 0.0 3.5 0.00 0.00 0.00 78 1000.3
20260505090405 69 1 0.0 1.7 0.00 0.00 0.00 78 1000.4
20260505090005 69 0 0.0 0.0 0.00 0.00 0.00 78 1000.4
20260505085605 69 0 0.0 0.0 0.00 0.00 0.00 78 1000.4
20260505084405 69 0 0.0 0.0 0.00 0.00 0.00 78 1000.5
20260505084006 69 0 0.0 0.0 0.00 0.00 0.00 77 1000.4
20260505083605 69 0 0.0 0.0 0.00 0.00 0.00 77 1000.5
20260505082804 69 0 0.0 0.0 0.00 0.00 0.00 76 1000.7
20260505081605 69 19 0.0 2.6 0.00 0.00 0.00 76 1000.7
20260505080805 69 30 0.9 2.6 0.00 0.00 0.00 76 1000.7
20260505080404 69 42 0.0 1.7 0.00 0.00 0.00 77 1000.6
20260505075604 69 42 0.0 1.7 0.00 0.00 0.00 77 1000.7
20260505075205 69 42 0.0 1.7 0.00 0.00 0.00 77 1000.7
20260505074805 69 43 0.0 0.9 0.00 0.00 0.00 77 1000.7
20260505074405 69 0 0.0 0.0 0.00 0.00 0.00 77 1000.7
20260505073605 69 42 0.0 1.7 0.00 0.00 0.00 76 1000.7
20260505073205 69 49 0.9 3.5 0.00 0.00 0.00 76 1000.7
20260505072805 69 66 0.9 3.5 0.00 0.00 0.00 77 1000.8
20260505072006 69 166 0.0 3.5 0.00 0.00 0.00 76 1000.4
20260505071604 69 162 0.0 3.5 0.00 0.00 0.00 76 1000.2
20260505071205 69 166 0.0 4.3 0.00 0.00 0.00 76 999.9
20260505070405 69 197 0.0 4.3 0.00 0.00 0.00 76 999.8
20260505070006 69 196 0.0 4.3 0.00 0.00 0.00 76 999.8
20260505065605 69 189 0.0 0.9 0.00 0.00 0.00 76 999.8
20260505064804 69 188 0.0 1.7 0.00 0.00 0.00 75 1000.1
20260505064405 69 188 0.0 1.7 0.00 0.00 0.00 75 1000.2
20260505064005 69 189 0.0 1.7 0.00 0.00 0.00 75 1000.3
20260505063606 69 188 0.0 3.5 0.00 0.00 0.00 75 1000.2
20260505062804 69 187 0.0 3.5 0.00 0.00 0.00 75 1000.3
20260505062405 69 186 0.0 2.6 0.00 0.00 0.00 75 1000.5
20260505062005 69 191 0.0 0.9 0.00 0.00 0.00 75 1000.7
20260505061204 69 192 0.0 2.6 0.00 0.00 0.00 75 1000.8
20260505060805 69 192 0.0 2.6 0.00 0.00 0.00 74 1000.8
20260505060404 69 191 0.0 2.6 0.00 0.00 0.00 74 1000.8
20260505055604 69 187 0.9 3.5 0.00 0.00 0.00 74 1001.0
20260505055205 69 183 0.9 3.5 0.00 0.00 0.00 74 1000.9
20260505054805 70 174 0.9 3.5 0.00 0.00 0.00 73 1000.9
20260505054406 70 169 0.9 3.5 0.00 0.00 0.00 73 1001.0
20260505054007 70 164 0.0 3.5 0.00 0.00 0.00 73 1000.9
20260505053605 70 173 0.9 6.1 0.00 0.00 0.00 73 1000.8
20260505053205 70 181 0.9 6.1 0.00 0.00 0.00 73 1000.9
20260505052805 70 184 0.9 6.1 0.00 0.00 0.00 73 1000.9
20260505052006 70 179 1.7 4.3 0.00 0.00 0.00 73 1000.8
20260505051605 70 181 1.7 4.3 0.00 0.00 0.00 73 1000.9
20260505051205 70 183 1.7 7.8 0.00 0.00 0.00 73 1000.7
20260505050805 70 181 1.7 7.8 0.00 0.00 0.00 73 1000.5